| time (UTC) | temp F | wind direction | speed MPH | gust MPH | rain 1hr in | rain 24hr in | rain mn in | humidity % | barometer mb |
| 20260507044543 | 55 | 0 | 0.0 | 7.0 | 0.00 | 0.00 | 0.00 | 86 | 1021.5 |
| 20260507043042 | 55 | 154 | 3.0 | 6.0 | 0.00 | 0.00 | 0.00 | 86 | 1021.3 |
| 20260507041541 | 55 | 0 | 0.0 | 1.0 | 0.00 | 0.00 | 0.00 | 86 | 1021.6 |
| 20260507040041 | 55 | 0 | 0.0 | 1.0 | 0.00 | 0.00 | 0.00 | 86 | 1021.6 |
| 20260507034542 | 55 | 0 | 0.0 | 2.0 | 0.00 | 0.00 | 0.00 | 85 | 1021.4 |
| 20260507033044 | 55 | 0 | 0.0 | 0.0 | 0.00 | 0.00 | 0.00 | 85 | 1021.2 |
| 20260507031544 | 55 | 0 | 0.0 | 1.0 | 0.00 | 0.00 | 0.00 | 85 | 1021.0 |
| 20260507030043 | 56 | 0 | 0.0 | 2.0 | 0.00 | 0.00 | 0.00 | 85 | 1021.1 |
| 20260507024540 | 56 | 0 | 0.0 | 4.0 | 0.00 | 0.00 | 0.00 | 85 | 1021.2 |
| 20260507023040 | 56 | 159 | 2.0 | 5.0 | 0.00 | 0.00 | 0.00 | 84 | 1020.9 |
| 20260507021540 | 56 | 165 | 1.0 | 5.0 | 0.00 | 0.00 | 0.00 | 84 | 1020.8 |
| 20260507020044 | 56 | 155 | 0.0 | 2.0 | 0.00 | 0.00 | 0.00 | 84 | 1021.0 |
| 20260507014549 | 56 | 0 | 1.0 | 5.0 | 0.00 | 0.00 | 0.00 | 84 | 1020.9 |
| 20260507013049 | 56 | 183 | 0.0 | 8.0 | 0.00 | 0.00 | 0.00 | 82 | 1020.9 |
| 20260507011540 | 56 | 173 | 1.0 | 6.0 | 0.00 | 0.00 | 0.00 | 83 | 1020.9 |
| 20260507010055 | 57 | 153 | 1.0 | 7.0 | 0.00 | 0.00 | 0.00 | 82 | 1020.9 |
| 20260507004536 | 57 | 146 | 2.0 | 7.0 | 0.00 | 0.00 | 0.00 | 82 | 1021.0 |
| 20260507003042 | 57 | 0 | 1.0 | 7.0 | 0.00 | 0.00 | 0.00 | 82 | 1021.0 |
| 20260507001542 | 57 | 162 | 1.0 | 5.0 | 0.00 | 0.00 | 0.00 | 83 | 1021.1 |
| 20260507000040 | 57 | 0 | 0.0 | 2.0 | 0.00 | 0.00 | 0.00 | 84 | 1021.1 |
| 20260506234538 | 56 | 293 | 0.0 | 4.0 | 0.00 | 0.00 | 0.00 | 85 | 1021.0 |
| 20260506233054 | 56 | 254 | 0.0 | 6.0 | 0.00 | 0.00 | 0.00 | 85 | 1021.2 |
| 20260506231546 | 56 | 0 | 0.0 | 6.0 | 0.00 | 0.00 | 0.00 | 86 | 1021.1 |
| 20260506230042 | 56 | 0 | 0.0 | 6.0 | 0.00 | 0.00 | 0.00 | 87 | 1021.3 |
| 20260506224541 | 56 | 0 | 2.0 | 7.0 | 0.00 | 0.00 | 0.00 | 87 | 1021.3 |
| 20260506223040 | 55 | 153 | 0.0 | 6.0 | 0.00 | 0.00 | 0.00 | 87 | 1021.4 |
| 20260506221537 | 55 | 0 | 0.0 | 6.0 | 0.00 | 0.00 | 0.00 | 88 | 1021.4 |
| 20260506220042 | 55 | 0 | 0.0 | 3.0 | 0.00 | 0.00 | 0.00 | 88 | 1021.4 |
| 20260506214540 | 55 | 0 | 0.0 | 3.0 | 0.00 | 0.00 | 0.00 | 89 | 1021.5 |
| 20260506213042 | 55 | 0 | 1.0 | 4.0 | 0.00 | 0.00 | 0.00 | 89 | 1021.4 |
| 20260506211542 | 55 | 252 | 2.0 | 7.0 | 0.00 | 0.00 | 0.00 | 88 | 1021.5 |
| 20260506210041 | 55 | 286 | 1.0 | 7.0 | 0.00 | 0.00 | 0.00 | 89 | 1021.4 |
| 20260506204540 | 55 | 269 | 2.0 | 7.0 | 0.00 | 0.00 | 0.00 | 89 | 1021.4 |
| 20260506203040 | 56 | 284 | 2.0 | 8.0 | 0.00 | 0.00 | 0.00 | 88 | 1021.3 |
| 20260506201537 | 56 | 269 | 0.0 | 4.0 | 0.00 | 0.00 | 0.00 | 89 | 1021.2 |
| 20260506200046 | 56 | 0 | 0.0 | 4.0 | 0.00 | 0.00 | 0.00 | 89 | 1021.1 |
| 20260506194547 | 56 | 297 | 0.0 | 2.0 | 0.00 | 0.00 | 0.00 | 89 | 1021.0 |
| 20260506193042 | 56 | 0 | 0.0 | 6.0 | 0.00 | 0.00 | 0.00 | 89 | 1021.1 |
| 20260506191557 | 55 | 288 | 0.0 | 5.0 | 0.00 | 0.00 | 0.00 | 90 | 1021.0 |
| 20260506190040 | 55 | 0 | 0.0 | 7.0 | 0.00 | 0.00 | 0.00 | 90 | 1021.2 |
| 20260506184546 | 55 | 284 | 1.0 | 7.0 | 0.00 | 0.00 | 0.00 | 90 | 1021.1 |
| 20260506183042 | 56 | 292 | 0.0 | 6.0 | 0.00 | 0.00 | 0.00 | 90 | 1020.9 |
| 20260506181541 | 56 | 0 | 0.0 | 6.0 | 0.00 | 0.00 | 0.00 | 91 | 1020.8 |
| 20260506180043 | 56 | 0 | 0.0 | 4.0 | 0.00 | 0.00 | 0.00 | 91 | 1020.5 |
| 20260506174537 | 55 | 159 | 0.0 | 6.0 | 0.00 | 0.00 | 0.00 | 92 | 1020.4 |
| 20260506173045 | 55 | 0 | 1.0 | 6.0 | 0.00 | 0.00 | 0.00 | 92 | 1020.8 |
| 20260506171551 | 55 | 286 | 0.0 | 6.0 | 0.00 | 0.00 | 0.00 | 93 | 1020.8 |
| 20260506170043 | 55 | 0 | 0.0 | 2.0 | 0.00 | 0.00 | 0.00 | 93 | 1020.7 |
| 20260506164552 | 55 | 261 | 1.0 | 4.0 | 0.00 | 0.00 | 0.00 | 93 | 1020.5 |
| 20260506163042 | 55 | 0 | 0.0 | 3.0 | 0.00 | 0.00 | 0.00 | 94 | 1020.1 |
| 20260506161537 | 55 | 0 | 0.0 | 0.0 | 0.00 | 0.00 | 0.00 | 94 | 1020.2 |
| 20260506160039 | 54 | 0 | 0.0 | 5.0 | 0.00 | 0.00 | 0.00 | 94 | 1020.1 |
| 20260506154553 | 54 | 0 | 0.0 | 3.0 | 0.00 | 0.00 | 0.00 | 94 | 1020.2 |
| 20260506153042 | 54 | 0 | 0.0 | 0.0 | 0.00 | 0.00 | 0.00 | 94 | 1020.4 |
| 20260506151541 | 54 | 0 | 0.0 | 0.0 | 0.00 | 0.00 | 0.00 | 94 | 1020.2 |
| 20260506150040 | 54 | 0 | 0.0 | 1.0 | 0.00 | 0.00 | 0.00 | 94 | 1019.9 |
| 20260506144543 | 54 | 0 | 0.0 | 0.0 | 0.00 | 0.00 | 0.00 | 93 | 1019.9 |
| 20260506143046 | 54 | 0 | 0.0 | 3.0 | 0.00 | 0.00 | 0.00 | 93 | 1019.8 |
| 20260506141603 | 54 | 0 | 0.0 | 0.0 | 0.00 | 0.00 | 0.00 | 93 | 1019.8 |
| 20260506140042 | 54 | 0 | 0.0 | 1.0 | 0.00 | 0.00 | 0.00 | 93 | 1019.8 |
| 20260506134542 | 54 | 0 | 0.0 | 0.0 | 0.00 | 0.00 | 0.00 | 93 | 1019.6 |
| 20260506133040 | 53 | 0 | 0.0 | 0.0 | 0.00 | 0.00 | 0.00 | 93 | 1019.6 |
| 20260506131540 | 53 | 0 | 0.0 | 1.0 | 0.00 | 0.00 | 0.00 | 93 | 1019.7 |
| 20260506130037 | 53 | 0 | 0.0 | 0.0 | 0.00 | 0.00 | 0.00 | 93 | 1019.5 |
| 20260506124546 | 53 | 0 | 0.0 | 0.0 | 0.00 | 0.00 | 0.00 | 93 | 1019.3 |
| 20260506123044 | 53 | 0 | 0.0 | 0.0 | 0.00 | 0.00 | 0.00 | 93 | 1019.2 |
| 20260506121548 | 53 | 0 | 0.0 | 0.0 | 0.00 | 0.00 | 0.00 | 94 | 1019.2 |
| 20260506120106 | 53 | 0 | 0.0 | 1.0 | 0.00 | 0.00 | 0.00 | 93 | 1019.2 |
| 20260506114544 | 53 | 0 | 0.0 | 0.0 | 0.00 | 0.00 | 0.00 | 94 | 1018.9 |
| 20260506113037 | 53 | 0 | 0.0 | 0.0 | 0.00 | 0.00 | 0.00 | 94 | 1019.0 |
| 20260506111544 | 53 | 0 | 0.0 | 0.0 | 0.00 | 0.00 | 0.00 | 94 | 1018.9 |
| 20260506110041 | 53 | 0 | 0.0 | 3.0 | 0.00 | 0.00 | 0.00 | 94 | 1018.7 |
| 20260506104542 | 52 | 0 | 0.0 | 0.0 | 0.00 | 0.00 | 0.00 | 94 | 1018.6 |
| 20260506103040 | 52 | 277 | 0.0 | 2.0 | 0.00 | 0.00 | 0.00 | 94 | 1018.5 |
| 20260506101540 | 52 | 0 | 0.0 | 2.0 | 0.00 | 0.00 | 0.00 | 94 | 1018.3 |
| 20260506100044 | 52 | 0 | 0.0 | 4.0 | 0.00 | 0.00 | 0.00 | 94 | 1018.2 |
| 20260506094540 | 52 | 0 | 0.0 | 0.0 | 0.00 | 0.00 | 0.00 | 93 | 1018.0 |
| 20260506093047 | 52 | 0 | 0.0 | 0.0 | 0.00 | 0.00 | 0.00 | 93 | 1018.1 |
| 20260506091542 | 52 | 0 | 0.0 | 0.0 | 0.00 | 0.00 | 0.00 | 93 | 1017.9 |
| 20260506090043 | 52 | 0 | 0.0 | 0.0 | 0.00 | 0.00 | 0.00 | 93 | 1017.8 |
| 20260506084540 | 52 | 0 | 0.0 | 0.0 | 0.00 | 0.00 | 0.00 | 93 | 1017.6 |
| 20260506083042 | 52 | 0 | 0.0 | 1.0 | 0.00 | 0.00 | 0.00 | 93 | 1017.5 |
| 20260506081549 | 53 | 0 | 0.0 | 0.0 | 0.00 | 0.00 | 0.00 | 92 | 1017.5 |
| 20260506073040 | 53 | 0 | 0.0 | 0.0 | 0.00 | 0.00 | 0.00 | 91 | 1017.6 |
| 20260506071548 | 54 | 0 | 0.0 | 0.0 | 0.00 | 0.00 | 0.00 | 91 | 1017.4 |
| 20260506061541 | 55 | 0 | 0.0 | 0.0 | 0.00 | 0.00 | 0.00 | 89 | 1017.0 |